KB7YYZ Weather Reports


Display with metric or nautical units.
time (UTC)temp
F
wind
direction
speed
MPH
gust
MPH
rain 1hr
in
rain 24hr
in
rain mn
in
humidity
%
barometer
mb
20260901233521 95 7 1.0 1.0 0.00 0.00 0.00 42 1008.6
20260901232521 95 259 1.0 1.0 0.00 0.00 0.00 42 1008.7
20260901231525 95 284 1.0 1.0 0.00 0.00 0.00 42 1008.7
20260901230540 95 267 1.0 1.0 0.00 0.00 0.00 42 1008.8
20260901225546 95 309 1.0 1.0 0.00 0.00 0.00 42 1009.0
20260901224524 95 318 1.0 1.0 0.00 0.00 0.00 41 1009.1
20260901223531 95 310 1.0 1.0 0.00 0.00 0.00 41 1009.1
20260901222622 95 226 1.0 1.0 0.00 0.00 0.00 41 1009.3
20260901221538 95 280 1.0 1.0 0.00 0.00 0.00 41 1009.4
20260901220548 95 295 1.0 1.0 0.00 0.00 0.00 41 1009.5
20260901215521 95 332 1.0 1.0 0.00 0.00 0.00 41 1009.6
20260901214527 95 213 1.0 1.0 0.00 0.00 0.00 41 1009.7
20260901213534 96 300 1.0 1.0 0.00 0.00 0.00 42 1009.8
20260901212533 95 273 1.0 2.0 0.00 0.00 0.00 41 1010.0
20260901211528 96 239 1.0 1.0 0.00 0.00 0.00 41 1010.1
20260901210545 95 310 1.0 1.0 0.00 0.00 0.00 41 1010.3
20260901205524 95 295 1.0 1.0 0.00 0.00 0.00 41 1010.4
20260901204546 95 349 1.0 1.0 0.00 0.00 0.00 40 1010.5
20260901203530 95 219 1.0 1.0 0.00 0.00 0.00 41 1010.7
20260901202532 95 341 0.0 1.0 0.00 0.00 0.00 40 1010.9
20260901201524 94 305 0.0 1.0 0.00 0.00 0.00 40 1011.0
20260901200522 94 338 1.0 1.0 0.00 0.00 0.00 42 1011.1
20260901195520 94 257 1.0 1.0 0.00 0.00 0.00 41 1011.2
20260901194528 94 223 1.0 2.0 0.00 0.00 0.00 41 1011.3
20260901193539 94 281 0.0 1.0 0.00 0.00 0.00 42 1011.5
20260901192541 94 320 1.0 1.0 0.00 0.00 0.00 43 1011.6
20260901191533 94 83 1.0 1.0 0.00 0.00 0.00 43 1011.7
20260901190524 93 267 0.0 1.0 0.00 0.00 0.00 43 1011.8
20260901185524 93 179 1.0 1.0 0.00 0.00 0.00 43 1011.9
20260901184540 93 334 0.0 1.0 0.00 0.00 0.00 43 1011.9
20260901183548 93 295 1.0 1.0 0.00 0.00 0.00 44 1012.0
20260901182550 93 210 1.0 1.0 0.00 0.00 0.00 44 1012.1
20260901181521 92 259 1.0 1.0 0.00 0.00 0.00 44 1012.1
20260901180521 92 308 1.0 1.0 0.00 0.00 0.00 45 1012.2
20260901175539 91 252 1.0 1.0 0.00 0.00 0.00 45 1012.2
20260901174539 91 215 0.0 1.0 0.00 0.00 0.00 46 1012.3
20260901173527 90 251 0.0 1.0 0.00 0.00 0.00 47 1012.3
20260901172533 90 237 1.0 1.0 0.00 0.00 0.00 46 1012.3
20260901171524 89 159 1.0 1.0 0.00 0.00 0.00 48 1012.3
20260901170543 89 224 0.0 0.0 0.00 0.00 0.00 50 1012.3
20260901165527 88 209 0.0 1.0 0.00 0.00 0.00 51 1012.3
20260901164525 88 216 0.0 1.0 0.00 0.00 0.00 52 1012.3
20260901163523 87 279 0.0 0.0 0.00 0.00 0.00 53 1012.2
20260901162522 87 262 0.0 1.0 0.00 0.00 0.00 53 1012.3
20260901161519 86 175 1.0 1.0 0.00 0.00 0.00 54 1012.3
20260901160533 85 178 1.0 1.0 0.00 0.00 0.00 54 1012.3
20260901155521 85 154 1.0 1.0 0.00 0.00 0.00 55 1012.3
20260901154536 84 156 1.0 1.0 0.00 0.00 0.00 55 1012.3
20260901153544 83 185 0.0 1.0 0.00 0.00 0.00 55 1012.4
20260901152526 83 199 0.0 0.0 0.00 0.00 0.00 55 1012.5
20260901151550 82 177 0.0 1.0 0.00 0.00 0.00 55 1012.4
20260901150536 81 196 0.0 1.0 0.00 0.00 0.00 55 1012.3
20260901145532 80 187 0.0 1.0 0.00 0.00 0.00 55 1012.3
20260901144549 80 22 0.0 0.0 0.00 0.00 0.00 54 1012.5
20260901143705 79 0.0 0.0 0.00 0.00 0.00 54 1012.5
20260901142528 78 0.0 0.0 0.00 0.00 0.00 54 1012.5
20260901141534 77 0.0 0.0 0.00 0.00 0.00 55
20260901140525 76 0.0 1.0 0.00 0.03 0.00 55 1012.1
20260901135534 76 0.0 0.0 0.00 0.03 0.00 55 1012.0
20260901134520 75 338 0.0 0.0 0.00 0.03 0.00 54 1012.0
20260901133525 75 0.0 0.0 0.00 0.03 0.00 54 1011.9
20260901132530 74 0.0 0.0 0.00 0.03 0.00 54 1011.8
20260901131526 75 0.0 0.0 0.00 0.03 0.00 54 1011.7
20260901130524 75 0.0 0.0 0.00 0.03 0.00 54 1011.6
20260901125522 75 0.0 0.0 0.00 0.03 0.00 54 1011.5
20260901124523 75 0.0 0.0 0.00 0.03 0.00 54 1011.3
20260901123528 75 0.0 0.0 0.00 0.03 0.00 55 1011.2
20260901122522 75 0.0 0.0 0.00 0.03 0.00 55 1011.2
20260901121542 75 0.0 0.0 0.00 0.06 0.00 55 1011.1
20260901120543 75 0.0 0.0 0.00 0.08 0.00 55 1011.0
20260901115539 75 0.0 0.0 0.00 0.08 0.00 55 1010.8
20260901114525 75 0.0 0.0 0.00 0.14 0.00 55 1011.0
20260901113531 75 0.0 0.0 0.00 0.19 0.00 55 1011.0
20260901112554 75 0.0 0.0 0.00 0.19 0.00 55 1011.0
20260901111545 75 0.0 0.0 0.00 0.19 0.00 55 1011.0
20260901110524 76 0.0 0.0 0.00 0.19 0.00 55 1011.0
20260901105522 76 0.0 0.0 0.00 0.19 0.00 55 1010.9
20260901104529 76 0.0 0.0 0.00 0.19 0.00 55 1010.8
20260901103530 76 0.0 0.0 0.00 0.19 0.00 55 1011.0
20260901102535 76 0.0 0.0 0.00 0.19 0.00 55 1010.8
20260901101542 76 0.0 0.0 0.00 0.19 0.00 55 1010.7
20260901100520 76 0.0 0.0 0.00 0.19 0.00 55 1010.6
20260901095519 76 0.0 0.0 0.00 0.19 0.00 55 1010.6
20260901094547 76 50 0.0 0.0 0.00 0.19 0.00 55 1010.6
20260901093526 76 30 0.0 0.0 0.00 0.19 0.00 55 1010.6
20260901092523 76 0.0 0.0 0.00 0.19 0.00 55 1010.5
20260901091521 76 0.0 0.0 0.00 0.19 0.00 55 1010.6
20260901090522 76 0.0 0.0 0.00 0.19 0.00 55 1010.7
20260901085525 77 0.0 0.0 0.00 0.19 0.00 55 1010.7
20260901084615 77 0.0 0.0 0.00 0.19 0.00 54 1010.7
20260901083542 77 0.0 0.0 0.00 0.19 0.00 54 1010.8
20260901082530 77 0.0 0.0 0.00 0.19 0.00 54 1010.8
20260901081519 77 0.0 0.0 0.00 0.19 0.00 54 1010.7
20260901080521 77 0.0 0.0 0.00 0.19 0.00 54 1010.7
20260901075531 77 0.0 0.0 0.00 0.19 0.00 54 1010.8
20260901074558 77 0.0 0.0 0.00 0.19 0.00 54 1010.9
20260901073527 77 0.0 0.0 0.00 0.19 0.00 55 1010.8
20260901072543 77 0.0 0.0 0.00 0.19 0.00 55 1010.8
20260901071522 78 0.0 0.0 0.00 0.19 0.00 55 1010.8
20260901070528 78 121 0.0 0.0 0.00 0.19 0.00 55 1010.8
20260901065522 78 0.0 1.0 0.00 0.19 0.19 55 1010.7
20260901064523 78 0.0 0.0 0.00 0.19 0.19 55 1010.7
20260901063533 78 0.0 0.0 0.00 0.19 0.19 55 1010.9
20260901062520 78 0.0 0.0 0.00 0.19 0.19 55 1011.0
20260901061529 78 0.0 0.0 0.00 0.19 0.19 55 1011.1
20260901060527 79 0.0 0.0 0.00 0.19 0.19 55 1011.0
20260901055541 79 0.0 0.0 0.00 0.19 0.19 55 1011.0
20260901054522 79 0.0 0.0 0.00 0.19 0.19 55 1010.9
20260901053540 79 0.0 0.0 0.00 0.19 0.19 55 1010.7
20260901052522 79 140 0.0 0.0 0.00 0.19 0.19 55 1010.7
20260901051529 79 302 0.0 1.0 0.00 0.19 0.19 55 1010.6
20260901050555 79 143 0.0 1.0 0.00 0.19 0.19 55 1010.8
20260901045533 79 231 0.0 1.0 0.00 0.19 0.19 55 1011.0
20260901044540 79 200 0.0 1.0 0.00 0.19 0.19 55 1011.0
20260901043520 79 0.0 0.0 0.00 0.19 0.19 55 1010.9
20260901042533 80 0.0 0.0 0.00 0.19 0.19 55 1010.9
20260901041553 80 0.0 0.0 0.00 0.19 0.19 55 1010.7
20260901040529 80 0.0 0.0 0.00 0.19 0.19 55 1010.7
20260901035607 81 0.0 0.0 0.00 0.19 0.19 55 1010.8
20260901034520 81 0.0 0.0 0.00 0.19 0.19 55 1010.6
20260901033523 81 0.0 0.0 0.00 0.19 0.19 55 1010.5
20260901032529 81 0.0 0.0 0.00 0.19 0.19 55 1010.5
20260901031526 81 0.0 0.0 0.00 0.19 0.19 55 1010.5
20260901030534 81 0.0 0.0 0.00 0.19 0.19 55 1010.4
20260901025531 81 0.0 0.0 0.00 0.19 0.19 54 1010.2
20260901024520 81 0.0 0.0 0.00 0.19 0.19 54 1009.9
20260901023527 80 0.0 0.0 0.00 0.19 0.19 54 1009.7
20260901022526 81 0.0 0.0 0.00 0.19 0.19 54 1009.7
20260901021604 81 0.0 0.0 0.00 0.19 0.19 53 1009.4
20260901020522 81 0.0 0.0 0.00 0.19 0.19 54 1009.2
20260901015519 81 0.0 0.0 0.00 0.19 0.19 54 1009.2
20260901014524 81 0.0 0.0 0.00 0.19 0.19 54 1009.1
20260901013519 81 0.0 0.0 0.00 0.19 0.19 54 1008.8
20260901012535 81 0.0 0.0 0.00 0.19 0.19 54 1008.8
20260901011541 81 0.0 0.0 0.00 0.19 0.19 54 1008.8
20260901010526 81 0.0 0.0 0.00 0.19 0.19 54 1008.9
20260901005520 81 0.0 0.0 0.00 0.19 0.19 54 1008.9
20260901004526 81 0.0 0.0 0.00 0.19 0.19 54 1008.8
20260901003532 81 0.0 0.0 0.00 0.19 0.19 54 1008.9
20260901002538 81 0.0 0.0 0.00 0.19 0.19 54 1008.9
20260901001543 81 59 0.0 0.0 0.00 0.19 0.19 54 1008.9
20260901000540 81 185 1.0 1.0 0.00 0.19 0.19 54 1008.9
20260831235524 81 227 1.0 1.0 0.00 0.19 0.19 54 1008.9
20260831234520 81 182 1.0 1.0 0.00 0.19 0.19 54 1009.0